Weather History for Rolla, ND

Change the Weather History Date:

Monday, December 3, 2012

  Actual Average (KRUG) Record (KRUG)
Temperature  
Mean Temperature 22 °F -  
Max Temperature 39 °F 25 °F 49 °F (1965)
Min Temperature 6 °F 7 °F -22 °F (1985)
Degree Days  
Heating Degree Days 42    
Moisture  
Dew Point 20 °F    
Average Humidity 85    
Maximum Humidity 100    
Minimum Humidity 68    
Precipitation  
Precipitation 0.00 in - - ()
Sea Level Pressure  
Sea Level Pressure 29.55 in    
Wind  
Wind Speed 17 mph (West)    
Max Wind Speed 37 mph    
Max Gust Speed 51 mph    
Visibility 10 miles    
Events Rain , Snow    
Averages and records for this station are not official NWS values.
T = Trace of Precipitation, MM = Missing Value Source: NWS Daily Summary

Daily Weather History Graph

Daily Weather History Graph

Search for Another Location

Airport:

Trip Planner

Search our weather history database for the weather conditions in past years. The results will help you decide how hot, cold, wet, or windy it might be!

Date:

Astronomy

Dec. 03, 2012 Rise Set
Actual Time 8:13 AM CST 4:42 PM CST
Civil Twilight 7:37 AM CST 5:19 PM CST
Nautical Twilight 6:57 AM CST 5:59 PM CST
Astronomical Twilight 6:19 AM CST 6:37 PM CST
Moon 9:46 PM CST (12/3) 11:25 AM CST (12/3)
Length of Visible Light 9h 42m
Length of Day
8h 29m
Waning Gibbous, 78% of the Moon is Illuminated
Dec 3
Waning Gibbous
Dec 6
Last Quarter
Dec 13
New
Dec 19
First Quarter
Dec 28
Full

Hourly Weather History & Observations

Time (CST) Temp. Windchill Dew Point Humidity Pressure Visibility Wind Dir Wind Speed Gust Speed Precip Events Conditions
12:15 AM 32.0 °F 27.5 °F 32.0 °F 100% 29.29 in 10.0 mi South 4.6 mph - N/A   Clear
12:35 AM 30.2 °F 25.4 °F 30.2 °F 100% 29.28 in 7.0 mi South 4.6 mph - N/A   Clear
12:55 AM 30.2 °F 24.3 °F 30.2 °F 100% 29.28 in 4.0 mi SSW 5.8 mph - N/A   Clear
1:15 AM 28.4 °F 22.2 °F 28.4 °F 100% 29.29 in 5.0 mi SSW 5.8 mph - N/A   Clear
1:35 AM 28.4 °F 20.4 °F 28.4 °F 100% 29.29 in 10.0 mi SSW 8.1 mph - N/A   Clear
1:55 AM 30.2 °F 22.6 °F 30.2 °F 100% 29.28 in 10.0 mi SSW 8.1 mph - N/A   Clear
2:15 AM 28.4 °F 21.2 °F 28.4 °F 100% 29.28 in 10.0 mi SW 6.9 mph - N/A   Mostly Cloudy
2:35 AM 32.0 °F 22.1 °F 32.0 °F 100% 29.29 in 10.0 mi SW 13.8 mph - N/A   Scattered Clouds
2:55 AM 35.6 °F 30.7 °F 35.6 °F 100% 29.30 in 10.0 mi SW 5.8 mph - N/A Rain Light Rain
3:15 AM 33.8 °F 27.0 °F 33.8 °F 100% 29.29 in 10.0 mi SSW 8.1 mph - N/A   Partly Cloudy
3:35 AM 37.4 °F 28.2 °F 37.4 °F 100% 29.33 in 10.0 mi WSW 16.1 mph 25.3 mph N/A   Mostly Cloudy
3:55 AM 37.4 °F 28.2 °F 37.4 °F 100% 29.32 in 10.0 mi West 16.1 mph - N/A   Overcast
4:15 AM 39.2 °F 30.2 °F 35.6 °F 87% 29.33 in 10.0 mi West 17.3 mph 25.3 mph N/A   Overcast
4:35 AM 39.2 °F 31.6 °F 35.6 °F 87% 29.33 in 10.0 mi NW 12.7 mph - N/A   Overcast
4:55 AM 39.2 °F 29.0 °F 35.6 °F 87% 29.34 in 10.0 mi WNW 21.9 mph - N/A   Overcast
5:15 AM 39.2 °F 28.7 °F 37.4 °F 93% 29.35 in 10.0 mi WNW 23.0 mph - N/A   Overcast
5:35 AM 39.2 °F 29.6 °F 37.4 °F 93% 29.36 in 10.0 mi WNW 19.6 mph - N/A Rain Light Rain
5:55 AM 39.2 °F 29.8 °F 39.2 °F 100% 29.37 in 10.0 mi WNW 18.4 mph 25.3 mph N/A   Overcast
6:15 AM 39.2 °F 28.0 °F 37.4 °F 93% 29.39 in 10.0 mi WNW 26.5 mph 32.2 mph N/A   Overcast
6:35 AM 39.2 °F 29.3 °F 35.6 °F 87% 29.40 in 10.0 mi WNW 20.7 mph 29.9 mph N/A   Overcast
6:55 AM 39.2 °F 28.3 °F 35.6 °F 87% 29.41 in 10.0 mi WNW 25.3 mph 33.4 mph N/A   Overcast
7:15 AM 37.4 °F 26.4 °F 35.6 °F 93% 29.42 in 10.0 mi WNW 23.0 mph 28.8 mph N/A   Overcast
7:35 AM 37.4 °F 26.6 °F 35.6 °F 93% 29.42 in 10.0 mi WNW 21.9 mph 31.1 mph N/A   Overcast
7:55 AM 37.4 °F 26.1 °F 35.6 °F 93% 29.42 in 10.0 mi West 24.2 mph 28.8 mph N/A   Overcast
8:15 AM 37.4 °F 25.9 °F 33.8 °F 87% 29.43 in 10.0 mi West 25.3 mph 32.2 mph N/A   Mostly Cloudy
8:35 AM 35.6 °F 23.4 °F 32.0 °F 87% 29.44 in 10.0 mi West 25.3 mph 36.8 mph N/A   Partly Cloudy
9:15 AM 35.6 °F 23.7 °F 32.0 °F 87% 29.44 in 10.0 mi West 24.2 mph 32.2 mph N/A   Clear
9:35 AM 33.8 °F 19.6 °F 32.0 °F 93% 29.45 in 10.0 mi West 32.2 mph 40.3 mph N/A   Clear
9:55 AM 32.0 °F 18.4 °F 32.0 °F 100% 29.47 in 10.0 mi West 26.5 mph 35.7 mph N/A   Clear
10:15 AM 32.0 °F 17.4 °F 30.2 °F 93% 29.48 in 10.0 mi West 31.1 mph 38.0 mph N/A   Partly Cloudy
10:35 AM 32.0 °F 17.9 °F 28.4 °F 87% 29.48 in 10.0 mi West 28.8 mph 50.6 mph N/A   Partly Cloudy
10:55 AM 32.0 °F 18.1 °F 28.4 °F 87% 29.48 in 10.0 mi West 27.6 mph 39.1 mph N/A   Scattered Clouds
11:15 AM 32.0 °F 17.9 °F 28.4 °F 87% 29.49 in 10.0 mi West 28.8 mph 36.8 mph N/A   Scattered Clouds
11:35 AM 32.0 °F 17.4 °F 26.6 °F 80% 29.49 in 10.0 mi West 31.1 mph 48.3 mph N/A   Scattered Clouds
11:55 AM 28.4 °F 12.3 °F 24.8 °F 86% 29.50 in 10.0 mi West 32.2 mph 46.0 mph N/A   Partly Cloudy
12:15 PM 28.4 °F 12.3 °F 23.0 °F 80% 29.51 in 10.0 mi West 32.2 mph 40.3 mph N/A   Partly Cloudy
12:35 PM 26.6 °F 11.1 °F 21.2 °F 80% 29.52 in 10.0 mi West 26.5 mph 46.0 mph N/A   Partly Cloudy
12:55 PM 24.8 °F 6.4 °F 17.6 °F 74% 29.53 in 10.0 mi West 36.8 mph 44.9 mph N/A   Clear
1:15 PM 23.0 °F 4.6 °F 15.8 °F 74% 29.55 in 10.0 mi WNW 33.4 mph 48.3 mph N/A   Clear
1:35 PM 21.2 °F 4.2 °F 14.0 °F 74% 29.56 in 10.0 mi West 25.3 mph 36.8 mph N/A   Clear
1:55 PM 21.2 °F 4.2 °F 12.2 °F 68% 29.57 in 10.0 mi West 25.3 mph 35.7 mph N/A   Clear
2:15 PM 19.4 °F 1.8 °F 12.2 °F 74% 29.59 in 10.0 mi WNW 25.3 mph 31.1 mph N/A   Scattered Clouds
2:35 PM 19.4 °F 0.8 °F 10.4 °F 68% 29.59 in 10.0 mi West 28.8 mph 36.8 mph N/A   Mostly Cloudy
2:55 PM 17.6 °F -1.6 °F 10.4 °F 73% 29.61 in 10.0 mi West 28.8 mph 33.4 mph N/A   Scattered Clouds
3:15 PM 15.8 °F -4.4 °F 8.6 °F 73% 29.62 in 10.0 mi WNW 29.9 mph 38.0 mph N/A   Mostly Cloudy
3:35 PM 15.8 °F -5.0 °F 8.6 °F 73% 29.63 in 10.0 mi WNW 32.2 mph 40.3 mph N/A   Partly Cloudy
3:55 PM 15.8 °F -2.7 °F 8.6 °F 73% 29.64 in 10.0 mi WNW 24.2 mph 41.4 mph N/A   Clear
4:15 PM 14.0 °F -5.1 °F 8.6 °F 79% 29.65 in 10.0 mi WNW 24.2 mph 33.4 mph N/A   Partly Cloudy
4:35 PM 14.0 °F -5.1 °F 6.8 °F 73% 29.67 in 10.0 mi WNW 24.2 mph 36.8 mph N/A Snow Light Snow
4:55 PM 14.0 °F -5.1 °F 6.8 °F 73% 29.68 in 10.0 mi WNW 24.2 mph 33.4 mph N/A Snow Light Snow
5:15 PM 14.0 °F -3.4 °F 6.8 °F 73% 29.70 in 10.0 mi WNW 19.6 mph 29.9 mph N/A Snow Light Snow
5:35 PM 14.0 °F -3.9 °F 6.8 °F 73% 29.71 in 10.0 mi WNW 20.7 mph 26.5 mph N/A   Clear
5:55 PM 12.2 °F -6.3 °F 6.8 °F 79% 29.72 in 10.0 mi WNW 20.7 mph 27.6 mph N/A   Partly Cloudy
6:15 PM 12.2 °F -5.3 °F 6.8 °F 79% 29.73 in 10.0 mi WNW 18.4 mph 25.3 mph N/A   Partly Cloudy
6:35 PM 12.2 °F -6.3 °F 6.8 °F 79% 29.74 in 10.0 mi WNW 20.7 mph 26.5 mph N/A   Clear
6:55 PM 10.4 °F -8.6 °F 6.8 °F 85% 29.76 in 10.0 mi WNW 20.7 mph 25.3 mph N/A   Clear
7:15 PM 10.4 °F -8.2 °F 5.0 °F 79% 29.78 in 10.0 mi WNW 19.6 mph 25.3 mph N/A   Clear
7:35 PM 10.4 °F -8.6 °F 5.0 °F 79% 29.79 in 10.0 mi WNW 20.7 mph 25.3 mph N/A   Clear
7:55 PM 10.4 °F -6.6 °F 5.0 °F 79% 29.79 in 10.0 mi WNW 16.1 mph 26.5 mph N/A   Clear
8:15 PM 10.4 °F -8.6 °F 5.0 °F 79% 29.79 in 10.0 mi WNW 20.7 mph 25.3 mph N/A   Clear
8:35 PM 10.4 °F -7.2 °F 5.0 °F 79% 29.81 in 10.0 mi WNW 17.3 mph - N/A   Clear
8:55 PM 8.6 °F -11.0 °F 5.0 °F 85% 29.82 in 10.0 mi NW 20.7 mph 26.5 mph N/A   Clear
9:15 PM 8.6 °F -8.3 °F 3.2 °F 79% 29.84 in 10.0 mi WNW 15.0 mph 26.5 mph N/A   Clear
9:35 PM 8.6 °F -7.0 °F 3.2 °F 79% 29.87 in 10.0 mi WNW 12.7 mph 18.4 mph N/A   Partly Cloudy
9:55 PM 8.6 °F -10.0 °F 3.2 °F 79% 29.86 in 10.0 mi NW 18.4 mph 26.5 mph N/A   Clear
10:15 PM 8.6 °F -10.5 °F 1.4 °F 73% 29.87 in 10.0 mi NW 19.6 mph 23.0 mph N/A   Clear
10:35 PM 6.8 °F -11.8 °F 1.4 °F 79% 29.88 in 10.0 mi NW 17.3 mph 23.0 mph N/A   Clear
10:55 PM 6.8 °F -11.3 °F 1.4 °F 79% 29.90 in 10.0 mi NW 16.1 mph - N/A   Clear
11:15 PM 6.8 °F -11.3 °F 1.4 °F 79% 29.91 in 10.0 mi NW 16.1 mph - N/A   Mostly Cloudy
11:35 PM 6.8 °F -11.8 °F 1.4 °F 79% 29.92 in 10.0 mi WNW 17.3 mph - N/A   Overcast